SL-16 DEB, 22393

Orbit data source: Space-Track

SL-16 DEB, 22393 is space debris in LEO originally from a launch on Fri, 25 Dec 1992 UTC launched from the Tyuratam Missile And Space Complex (TTMTR). Debris objects in space refer to the collection of defunct objects orbiting the Earth. Examples of debris include non-operational satellites, rocket bodies, and fragments generated from explosions, collisions, or faulty payload assembly.

Loading next visibility...
Identifier
22393, 1992-093CJ
Orbit
LEO
Country
Flag of CISCIS
Related business
Manufacturer
Unknown
Mission
Spacecraft
Bus & Motor
Unknown
Mass
Unknown
Launch date (UTC)
1992-12-25 (33 years ago)
Launch vehicle
Unknown
Launch site
Tyuratam Missile And Space Complex (TTMTR)
Object type
Payload
Rocket body
Debris
Shape & HBR
Unknown shape, 0.2 m
Radar Cross Section
Medium (>0.1 m² and <1 m²)

Expand to show TLE details & history
Last TLE update: 2 days ago

TLE from 2 days ago
0 SL-16 DEB
1 22393U 92093CJ  26171.46585215  .00000876  00000-0  49195-3 0  9997
2 22393  71.1202 210.9077 0115678   4.5859 111.2717 14.09900648708577
Epoch: 2026-06-20T11:10Z
TLE epoch observation values (Epoch: 2026-06-20T11:10:49.625Z)
Latitude
57.50646°
Longitude
-77.76373°
Altitude
900.057 km
Speed
7.392 km/s
True Right ascension
23h 54m 29s
True Declination
57° 21' 13"
Sunlit
Object was in daylight at epoch
Visualization orbit readout
Latitude
Unknown
Longitude
Unknown
Altitude
Unknown
Speed
Unknown
Apparent Right ascension
Unknown
Apparent Declination
Unknown
Sunlit
N/A
Visualization observer readout
Local Sidereal Time
07:09:51
Azimuth
Unknown
Elevation
Unknown
Doppler factor
Unknown
Orbital elements
Apogee altitude
941.331 km
Perigee altitude
773.928 km
Semi-major axis
7,235.766 km
Eccentricity
0.01157
Inclination
71.1202°
RAAN
210.9077°
Arg. of periapsis
4.5859°
True anomaly
112.50042°
Mean anomaly
111.2717°
Eccentric anomaly
111.88671°
Mean motion
3.52628 °/min
Orbital period
102.09 mins
BSTAR
0.00049195
Loading maneuver chart data...
Computing Atmospheric mass density...
Loading historical data...
Loading historical data...
Loading historical data...
Loading historical data...
Loading historical data...
Loading historical data...
Loading historical data...

Documentation

Showing up to 5 results
|